星链-3790 (STARLINK-3790 )

导读

STARLINK-3790是美国SpaceX公司星链(Starlink)卫星互联网项目的一员,于2022年4月21日发射升空,属于星链低轨星座组网卫星。 该卫星运行于近地轨道,旨在为全球提供高速低延迟宽带互联网服务,尤其覆盖偏远地区和地面网络未覆盖区域。作为星链大规模星座计划的组成部分,它助力星链实现全球通信覆盖,推动卫星互联网商业化进程。

Basic Information
目录编号:
52274
目录名称:
STARLINK-3790
国际标识:
2022-041P
轨道中心:
EARTH
卫星名称:
星链-3790
卫星全名:
星链-3790 (STARLINK-3790 )
卫星状态:
在轨 (已飞行1597 天)
发射日期:
2022-04-21 UTC
国别 :
美国 (US)
星等 :
--
Orbit Information
数据来源 国际轨道数据 AOE轨道数据
星历时间 2026-09-03T23:21:19+0800
12小时前
查看轨道信息
2026-09-03T09:00:00+0800
1天前
查看轨道信息
半长轴 6848.905km 6848.89km
偏心率 0.0001083 0.0000991
轨道倾角 53.162° 53.160°
近地点辐角 76.769° 67.444°
升交点赤经 19.668° 22.452°
平近点角 283.344° 232.679°
近地点 470.026km 470.074km
远地点 471.51km 471.432km
周期 94.014分钟 94.013分钟
每日圈数 15.316907 15.316957
Detailed Information
固有亮度:
5
最大亮度:
2.5
卫星平台:
Starlink v1.5
覆盖范围:
全球
运营商:
太空探索技术公司
运营商所在国:
美国
制造商(研发单位):
太空探索技术公司
制造商所在国:
美国
使用方式:
暂无
Satellite Introduction
星链(Starlink)计划是由太空探索技术公司(SpaceX)提出的一个巨型低轨卫星互联网星座项目,计划在2019年至2024年间在太空搭建由约1.2万颗卫星组成的“星链”网络,其中1584颗将部署在地球上空550千米处的近地轨道,并从2020年开始工作。该卫星仍在工作。
2D Orbit Map
3D Orbit Map
Orbit Altitude Analysis Chart
Orbit Inclination Analysis Chart
Orbit Comprehensive Analysis Chart
View Comprehensive Chart
Conjunction Data List
Event ID Objects TCA Miss Dist (km) Collision Risk Probability Collision Risk Index (CRI) Action
CDM_260904-235705-227406-532321
2026-09-04T
23:57:49+0000
1.495 km
极远距离
4.383976E-6 低风险 0.48
CDM_260905-083405-227406-532321
2026-09-05T
08:34:34+0000
1.561 km
极远距离
3.830921E-6 低风险 0.47
CDM_260905-013105-227406-532321
2026-09-05T
01:31:46+0000
2.130 km
极远距离
1.649734E-6 低风险 0.39
CDM_260828-132305-227406-790221
2026-08-28T
13:23:42+0000
2.726 km
极远距离
1.432451E-6 低风险 0.38
CDM_260905-012605-227405-368021
2026-09-05T
01:26:51+0000
2.749 km
极远距离
1.371943E-6 低风险 0.38
CDM_260903-004705-227406-796121
2026-09-03T
00:47:14+0000
2.886 km
极远距离
1.331969E-6 低风险 0.37
CDM_260905-100805-227406-532321
2026-09-05T
10:08:31+0000
2.717 km
极远距离
1.056418E-6 低风险 0.35